Time,TemperatureF,DewpointF,PressureIn,WindDirection,WindDirectionDegrees,WindSpeedMPH,WindSpeedGustMPH,Humidity,HourlyPrecipIn,Conditions,Clouds,dailyrainin,SolarRadiationWatts/m^2,SoftwareType,DateUTC
2013-01-01 00:02:00,17.0,7.0,-100.00,WNW,286,5.0,9.0,65,0.00,,,-99.99,0.000000,,2013-01-01 07:02:00,
2013-01-01 00:12:00,17.0,7.0,-100.00,WNW,286,5.0,9.0,65,0.00,,,-99.99,0.000000,,2013-01-01 07:12:00,
2013-01-01 00:22:00,17.0,7.0,-100.00,WNW,286,5.0,9.0,65,0.00,,,-99.99,0.000000,,2013-01-01 07:22:00,
2013-01-01 00:32:00,17.0,7.0,-100.00,WNW,286,5.0,9.0,65,0.00,,,-99.99,0.000000,,2013-01-01 07:32:00,
2013-01-01 00:52:00,17.0,5.0,-100.00,West,268,5.0,11.0,59,0.00,,,0.00,0.000000,,2013-01-01 07:52:00,
2013-01-01 01:02:00,17.0,5.0,-100.00,West,268,5.0,11.0,59,0.00,,,0.00,0.000000,,2013-01-01 08:02:00,
2013-01-01 01:11:00,17.0,5.0,-100.00,West,268,5.0,11.0,59,0.00,,,0.00,0.000000,,2013-01-01 08:11:00,
2013-01-01 01:22:00,17.0,5.0,-100.00,West,268,5.0,11.0,59,0.00,,,0.00,0.000000,,2013-01-01 08:22:00,
2013-01-01 01:32:00,17.0,5.0,-100.00,West,268,5.0,11.0,59,0.00,,,0.00,0.000000,,2013-01-01 08:32:00,
2013-01-01 01:53:00,17.0,4.0,-100.00,WNW,285,3.0,9.0,57,0.00,,,-99.99,0.000000,,2013-01-01 08:53:00,
2013-01-01 02:02:00,17.0,4.0,-100.00,WNW,285,3.0,9.0,57,0.00,,,-99.99,0.000000,,2013-01-01 09:02:00,
2013-01-01 02:11:00,17.0,4.0,-100.00,WNW,285,3.0,9.0,57,0.00,,,-99.99,0.000000,,2013-01-01 09:11:00,
2013-01-01 02:22:00,17.0,4.0,-100.00,WNW,285,3.0,9.0,57,0.00,,,-99.99,0.000000,,2013-01-01 09:22:00,
2013-01-01 02:32:00,17.0,4.0,-100.00,WNW,285,3.0,9.0,57,0.00,,,-99.99,0.000000,,2013-01-01 09:32:00,
2013-01-01 02:52:00,17.0,8.0,-100.00,SE,135,3.0,9.0,66,0.00,,,0.00,0.000000,,2013-01-01 09:52:00,
2013-01-01 03:02:00,17.0,8.0,-100.00,SE,135,3.0,9.0,66,0.00,,,0.00,0.000000,,2013-01-01 10:02:00,
2013-01-01 03:12:00,17.0,8.0,-100.00,SE,135,3.0,9.0,66,0.00,,,0.00,0.000000,,2013-01-01 10:12:00,
2013-01-01 03:22:00,17.0,8.0,-100.00,SE,135,3.0,9.0,66,0.00,,,0.00,0.000000,,2013-01-01 10:22:00,
2013-01-01 03:32:00,17.0,8.0,-100.00,SE,135,3.0,9.0,66,0.00,,,0.00,0.000000,,2013-01-01 10:32:00,
2013-01-01 03:53:00,16.0,10.0,-100.00,WSW,242,2.0,4.0,78,0.00,,,0.00,0.000000,,2013-01-01 10:53:00,
2013-01-01 04:02:00,16.0,10.0,-100.00,WSW,242,2.0,4.0,78,0.00,,,0.00,0.000000,,2013-01-01 11:02:00,
2013-01-01 04:12:00,16.0,10.0,-100.00,WSW,242,2.0,4.0,78,0.00,,,0.00,0.000000,,2013-01-01 11:12:00,
2013-01-01 04:22:00,16.0,10.0,-100.00,WSW,242,2.0,4.0,78,0.00,,,0.00,0.000000,,2013-01-01 11:22:00,
2013-01-01 04:32:00,16.0,10.0,-100.00,WSW,242,2.0,4.0,78,0.00,,,0.00,0.000000,,2013-01-01 11:32:00,
2013-01-01 04:53:00,15.0,9.0,-100.00,West,271,2.0,4.0,78,0.00,,,0.00,0.000000,,2013-01-01 11:53:00,
2013-01-01 05:02:00,15.0,9.0,-100.00,West,271,2.0,4.0,78,0.00,,,0.00,0.000000,,2013-01-01 12:02:00,
2013-01-01 05:12:00,15.0,9.0,-100.00,West,271,2.0,4.0,78,0.00,,,0.00,0.000000,,2013-01-01 12:12:00,
2013-01-01 05:22:00,15.0,9.0,-100.00,West,271,2.0,4.0,78,0.00,,,0.00,0.000000,,2013-01-01 12:22:00,
2013-01-01 05:32:00,15.0,9.0,-100.00,West,271,2.0,4.0,78,0.00,,,0.00,0.000000,,2013-01-01 12:32:00,
2013-01-01 06:02:00,18.0,1.0,-100.00,SSW,200,4.0,6.0,47,0.00,,,0.00,0.000000,,2013-01-01 13:02:00,
2013-01-01 06:12:00,18.0,1.0,-100.00,SSW,200,4.0,6.0,47,0.00,,,0.00,0.000000,,2013-01-01 13:12:00,
2013-01-01 06:22:00,18.0,1.0,-100.00,SSW,200,4.0,6.0,47,0.00,,,0.00,0.000000,,2013-01-01 13:22:00,
2013-01-01 06:32:00,18.0,1.0,-100.00,SSW,200,4.0,6.0,47,0.00,,,0.00,0.000000,,2013-01-01 13:32:00,
2013-01-01 06:53:00,17.0,-2.0,-100.00,NW,325,2.0,6.0,43,0.00,,,0.00,0.000000,,2013-01-01 13:53:00,
2013-01-01 07:02:00,17.0,-2.0,-100.00,NW,325,2.0,6.0,43,0.00,,,0.00,0.000000,,2013-01-01 14:02:00,
2013-01-01 07:12:00,17.0,-2.0,-100.00,NW,325,2.0,6.0,43,0.00,,,0.00,0.000000,,2013-01-01 14:12:00,
2013-01-01 07:22:00,17.0,-2.0,-100.00,NW,325,2.0,6.0,43,0.00,,,0.00,0.000000,,2013-01-01 14:22:00,
2013-01-01 07:32:00,17.0,-2.0,-100.00,NW,325,2.0,6.0,43,0.00,,,0.00,0.000000,,2013-01-01 14:32:00,
2013-01-01 08:02:00,21.0,-2.0,-100.00,NNW,328,2.0,6.0,36,0.00,,,0.00,3.000000,,2013-01-01 15:02:00,
2013-01-01 08:12:00,21.0,-2.0,-100.00,NNW,328,2.0,6.0,36,0.00,,,0.00,3.000000,,2013-01-01 15:12:00,
2013-01-01 08:22:00,21.0,-2.0,-100.00,NNW,328,2.0,6.0,36,0.00,,,0.00,3.000000,,2013-01-01 15:22:00,
2013-01-01 08:32:00,21.0,-2.0,-100.00,NNW,328,2.0,6.0,36,0.00,,,0.00,3.000000,,2013-01-01 15:32:00,
2013-01-01 09:02:00,33.0,5.0,-100.00,SE,140,1.0,9.0,30,0.00,,,0.00,50.000000,,2013-01-01 16:02:00,
2013-01-01 10:02:00,38.0,6.0,-100.00,West,265,3.0,5.0,26,0.00,,,0.00,79.000000,,2013-01-01 17:02:00,
2013-01-01 10:12:00,38.0,6.0,-100.00,West,265,3.0,5.0,26,0.00,,,0.00,79.000000,,2013-01-01 17:12:00,
2013-01-01 10:22:00,38.0,6.0,-100.00,West,265,3.0,5.0,26,0.00,,,0.00,79.000000,,2013-01-01 17:22:00,
2013-01-01 10:32:00,38.0,6.0,-100.00,West,265,3.0,5.0,26,0.00,,,0.00,79.000000,,2013-01-01 17:32:00,
2013-01-01 11:03:00,43.0,20.0,-100.00,SW,218,3.0,6.0,39,0.00,,,0.00,98.000000,,2013-01-01 18:03:00,
2013-01-01 11:12:00,43.0,20.0,-100.00,SW,218,3.0,6.0,39,0.00,,,0.00,98.000000,,2013-01-01 18:12:00,
2013-01-01 11:22:00,43.0,20.0,-100.00,SW,218,3.0,6.0,39,0.00,,,0.00,98.000000,,2013-01-01 18:22:00,
2013-01-01 11:33:00,43.0,20.0,-100.00,SW,218,3.0,6.0,39,0.00,,,0.00,98.000000,,2013-01-01 18:33:00,
2013-01-01 11:53:00,42.0,17.0,-100.00,WSW,238,2.0,6.0,36,0.00,,,0.00,144.000000,,2013-01-01 18:53:00,
2013-01-01 12:02:00,42.0,17.0,-100.00,WSW,238,2.0,6.0,36,0.00,,,0.00,144.000000,,2013-01-01 19:02:00,
2013-01-01 12:12:00,42.0,17.0,-100.00,WSW,238,2.0,6.0,36,0.00,,,0.00,144.000000,,2013-01-01 19:12:00,
2013-01-01 12:22:00,42.0,17.0,-100.00,WSW,238,2.0,6.0,36,0.00,,,0.00,144.000000,,2013-01-01 19:22:00,
2013-01-01 12:32:00,42.0,17.0,-100.00,WSW,238,2.0,6.0,36,0.00,,,0.00,144.000000,,2013-01-01 19:32:00,
2013-01-01 12:52:00,44.0,21.0,-100.00,South,182,3.0,6.0,40,0.00,,,0.00,179.000000,,2013-01-01 19:52:00,
2013-01-01 13:02:00,44.0,21.0,-100.00,South,182,3.0,6.0,40,0.00,,,0.00,179.000000,,2013-01-01 20:02:00,
2013-01-01 13:12:00,44.0,21.0,-100.00,South,182,3.0,6.0,40,0.00,,,0.00,179.000000,,2013-01-01 20:12:00,
2013-01-01 13:22:00,44.0,21.0,-100.00,South,182,3.0,6.0,40,0.00,,,0.00,179.000000,,2013-01-01 20:22:00,
2013-01-01 13:32:00,44.0,21.0,-100.00,South,182,3.0,6.0,40,0.00,,,0.00,179.000000,,2013-01-01 20:32:00,
2013-01-01 13:53:00,45.0,27.0,-100.00,South,178,3.0,6.0,50,0.00,,,0.00,192.000000,,2013-01-01 20:53:00,
2013-01-01 14:03:00,45.0,27.0,-100.00,South,178,3.0,6.0,50,0.00,,,0.00,192.000000,,2013-01-01 21:03:00,
2013-01-01 14:12:00,45.0,27.0,-100.00,South,178,3.0,6.0,50,0.00,,,0.00,192.000000,,2013-01-01 21:12:00,
2013-01-01 14:53:00,41.0,23.0,-100.00,SSE,156,3.0,6.0,49,0.00,,,0.00,525.000000,,2013-01-01 21:53:00,
2013-01-01 15:02:00,41.0,23.0,-100.00,SSE,156,3.0,6.0,49,0.00,,,0.00,525.000000,,2013-01-01 22:02:00,
2013-01-01 15:12:00,41.0,23.0,-100.00,SSE,156,3.0,6.0,49,0.00,,,0.00,525.000000,,2013-01-01 22:12:00,
2013-01-01 15:22:00,41.0,23.0,-100.00,SSE,156,3.0,6.0,49,0.00,,,0.00,525.000000,,2013-01-01 22:22:00,
2013-01-01 15:32:00,41.0,23.0,-100.00,SSE,156,3.0,6.0,49,0.00,,,0.00,525.000000,,2013-01-01 22:32:00,
2013-01-01 15:52:00,39.0,24.0,-100.00,South,185,2.0,6.0,54,0.00,,,0.00,573.000000,,2013-01-01 22:52:00,
2013-01-01 16:02:00,39.0,24.0,-100.00,South,185,2.0,6.0,54,0.00,,,0.00,573.000000,,2013-01-01 23:02:00,
2013-01-01 16:12:00,39.0,24.0,-100.00,South,185,2.0,6.0,54,0.00,,,0.00,573.000000,,2013-01-01 23:12:00,
2013-01-01 16:22:00,39.0,24.0,-100.00,South,185,2.0,6.0,54,0.00,,,0.00,573.000000,,2013-01-01 23:22:00,
2013-01-01 16:32:00,39.0,24.0,-100.00,South,185,2.0,6.0,54,0.00,,,0.00,573.000000,,2013-01-01 23:32:00,
2013-01-01 17:02:00,33.0,21.0,-100.00,ESE,107,2.0,4.0,62,0.00,,,0.00,304.000000,,2013-01-02 00:02:00,
2013-01-01 17:12:00,33.0,21.0,-100.00,ESE,107,2.0,4.0,62,0.00,,,0.00,304.000000,,2013-01-02 00:12:00,
2013-01-01 17:22:00,33.0,21.0,-100.00,ESE,107,2.0,4.0,62,0.00,,,0.00,304.000000,,2013-01-02 00:22:00,
2013-01-01 17:32:00,33.0,21.0,-100.00,ESE,107,2.0,4.0,62,0.00,,,0.00,304.000000,,2013-01-02 00:32:00,
2013-01-01 17:53:00,27.0,2.0,-100.00,NNE,33,7.0,9.0,33,0.00,,,0.00,28.000000,,2013-01-02 00:53:00,
2013-01-01 18:02:00,27.0,2.0,-100.00,NNE,33,7.0,9.0,33,0.00,,,0.00,28.000000,,2013-01-02 01:02:00,
2013-01-01 18:12:00,27.0,2.0,-100.00,NNE,33,7.0,9.0,33,0.00,,,0.00,28.000000,,2013-01-02 01:12:00,
2013-01-01 18:22:00,27.0,2.0,-100.00,NNE,33,7.0,9.0,33,0.00,,,0.00,28.000000,,2013-01-02 01:22:00,
2013-01-01 18:32:00,27.0,2.0,-100.00,NNE,33,7.0,9.0,33,0.00,,,0.00,28.000000,,2013-01-02 01:32:00,
2013-01-01 18:52:00,27.0,1.0,-100.00,NE,41,8.0,11.0,32,0.00,,,0.00,0.000000,,2013-01-02 01:52:00,
2013-01-01 19:02:00,27.0,1.0,-100.00,NE,41,8.0,11.0,32,0.00,,,0.00,0.000000,,2013-01-02 02:02:00,
2013-01-01 19:12:00,27.0,1.0,-100.00,NE,41,8.0,11.0,32,0.00,,,0.00,0.000000,,2013-01-02 02:12:00,
2013-01-01 19:22:00,27.0,1.0,-100.00,NE,41,8.0,11.0,32,0.00,,,0.00,0.000000,,2013-01-02 02:22:00,
2013-01-01 19:32:00,27.0,1.0,-100.00,NE,41,8.0,11.0,32,0.00,,,0.00,0.000000,,2013-01-02 02:32:00,
2013-01-01 19:53:00,27.0,-1.0,-100.00,NE,38,7.0,10.0,29,0.00,,,0.00,0.000000,,2013-01-02 02:53:00,
2013-01-01 20:02:00,27.0,-1.0,-100.00,NE,38,7.0,10.0,29,0.00,,,0.00,0.000000,,2013-01-02 03:02:00,
2013-01-01 20:11:00,27.0,-1.0,-100.00,NE,38,7.0,10.0,29,0.00,,,0.00,0.000000,,2013-01-02 03:11:00,
2013-01-01 20:22:00,27.0,-1.0,-100.00,NE,38,7.0,10.0,29,0.00,,,0.00,0.000000,,2013-01-02 03:22:00,
2013-01-01 20:32:00,27.0,-1.0,-100.00,NE,38,7.0,10.0,29,0.00,,,0.00,0.000000,,2013-01-02 03:32:00,
2013-01-01 20:53:00,29.0,-5.0,-100.00,NNE,28,7.0,13.0,22,0.00,,,0.00,0.000000,,2013-01-02 03:53:00,
2013-01-01 21:02:00,29.0,-5.0,-100.00,NNE,28,7.0,13.0,22,0.00,,,0.00,0.000000,,2013-01-02 04:02:00,
2013-01-01 21:12:00,29.0,-5.0,-100.00,NNE,28,7.0,13.0,22,0.00,,,0.00,0.000000,,2013-01-02 04:12:00,
2013-01-01 21:22:00,29.0,-5.0,-100.00,NNE,28,7.0,13.0,22,0.00,,,0.00,0.000000,,2013-01-02 04:22:00,
2013-01-01 21:32:00,29.0,-5.0,-100.00,NNE,28,7.0,13.0,22,0.00,,,0.00,0.000000,,2013-01-02 04:32:00,
2013-01-01 21:52:00,29.0,-10.0,-100.00,NE,55,1.0,12.0,17,0.00,,,0.00,0.000000,,2013-01-02 04:52:00,
2013-01-01 22:03:00,29.0,-10.0,-100.00,NE,55,1.0,12.0,17,0.00,,,0.00,0.000000,,2013-01-02 05:03:00,
2013-01-01 23:02:00,27.0,-3.0,-100.00,ENE,58,10.0,12.0,26,0.00,,,0.00,0.000000,,2013-01-02 06:02:00,
2013-01-01 23:12:00,27.0,-3.0,-100.00,ENE,58,10.0,12.0,26,0.00,,,0.00,0.000000,,2013-01-02 06:12:00,
2013-01-01 23:22:00,27.0,-3.0,-100.00,ENE,58,10.0,12.0,26,0.00,,,0.00,0.000000,,2013-01-02 06:22:00,
2013-01-01 23:32:00,27.0,-3.0,-100.00,ENE,58,10.0,12.0,26,0.00,,,0.00,0.000000,,2013-01-02 06:32:00,
2013-01-01 23:53:00,30.0,-6.0,-100.00,NE,53,9.0,12.0,20,0.00,,,0.00,0.000000,,2013-01-02 06:53:00,